Overview Statistics Trail Chart Weather Telemetry Raw packets
 

This is the latest recevied weather packets stored in our database for station/object 4S6DRJ-13. If no packets are shown the sender has not sent any weather packets the latest 10 day(s).

<< 375 376 377 378 379 380 381 >>
Time Temp. Humidity Pressure Rain* Wind** Luminosity Snow
1787899403 30.56° C 76% 1009.9 hPa 0 mm 1.79 m/s, 81° 485 W/m² -
1787899342 30.56° C 76% 1009.8 hPa 0 mm 2.68 m/s, 220° 989 W/m² -
1787899281 30° C 78% 1009.9 hPa 0 mm 1.34 m/s, 300° 791 W/m² -
1787899220 30° C 77% 1010 hPa 0 mm 1.34 m/s, 201° 1121 W/m² -
1787899159 30° C 77% 1010.1 hPa 0 mm 1.79 m/s, 295° 662 W/m² -
1787899106 30° C 77% 1009.9 hPa 0 mm 3.13 m/s, 283° 494 W/m² -
1787899037 30° C 78% 1010.1 hPa 0 mm 1.79 m/s, 292° 856 W/m² -
1787898976 30° C 78% 1010 hPa 0 mm 1.79 m/s, 322° 432 W/m² -
1787898915 30° C 78% 1010 hPa 0 mm 1.34 m/s, 275° 746 W/m² -
1787898854 29.44° C 78% 1010 hPa 0 mm 1.79 m/s, 139° 697 W/m² -
1787898794 29.44° C 78% 1010 hPa 0 mm 2.24 m/s, 225° 789 W/m² -
1787898732 29.44° C 79% 1010.1 hPa 0 mm 2.68 m/s, 138° 481 W/m² -
1787898671 29.44° C 79% 1010.1 hPa 0 mm 0.89 m/s, 321° 617 W/m² -
1787898610 30° C 78% 1010.1 hPa 0 mm 2.24 m/s, 224° 291 W/m² -
1787898549 30° C 78% 1010 hPa 0 mm 1.79 m/s, 257° 238 W/m² -
1787898497 30° C 78% 1010.1 hPa 0 mm 3.58 m/s, 275° 247 W/m² -
1787898427 30° C 77% 1010.3 hPa 0 mm 1.34 m/s, 324° 284 W/m² -
1787898366 30° C 77% 1010.2 hPa 0 mm 0.89 m/s, 274° 269 W/m² -
1787898305 30° C 77% 1010.2 hPa 0 mm 3.13 m/s, 311° 354 W/m² -
1787898244 30° C 76% 1010.3 hPa 0 mm 1.34 m/s, 337° 256 W/m² -
1787898183 30° C 76% 1010.1 hPa 0 mm 2.68 m/s, 216° 262 W/m² -
1787898122 30° C 76% 1010.1 hPa 0 mm 1.79 m/s, 233° 398 W/m² -
1787898061 30° C 77% 1010.1 hPa 0 mm 1.34 m/s, 345° 434 W/m² -
1787898000 30° C 77% 1010.2 hPa 0 mm 0.89 m/s, 327° 266 W/m² -
1787897939 30° C 76% 1010.2 hPa 0 mm 2.24 m/s, 29° 266 W/m² -

* Rain latest hour (hover to see other rain measurements)
** Current wind speed in m/s (hover to see current wind gust speed)